Погода в Вольном

Россия / Орловская область     52°48′48″N   37°49′55″E
темп.,
°C
ветер,
м/с
пор.,
м/с
влажн.,
%
обл.,
%
осадки,
мм/ч
давл.,
гПа
погр.,
м
10 апреля, сб
сб1000:00+3в11630 0.0 102710
03:00+2вюв11660 0.0 102810
06:00+1вюв12720 0.0 102810
09:00+5вюв22580 0.0 1028323
12:00+8ююз00442 0.0 10271164
15:00+9сз22395 0.0 10261446
18:00+9ссз12420 0.0 10261343
21:00+6в11530 0.0 102710
11 апреля, вс
вс1100:00+5зюз11580 0.0 102810
03:00+3сз22644 0.0 102813
06:00+2с22635 0.0 102911
09:00+7ссв235112 0.0 1030234
12:00+10ссв344199 0.0 1030910
15:00+12св4537100 0.0 10291139
18:00+10св3751100 0.0 1030215
21:00+7св41162100 0.0 1030263
12 апреля, пн
пн1200:00+6св41167100 0.0 1029237
03:00+6св51267100 0.0 1029319
06:00+4св51079100 0.0 1028269
09:00+7всв5983100 0.0 1027321
12:00+12в5771100 0.0 1026511
15:00+15в5759100 0.0 1024739
18:00+15всв3763100 0.0 1023125
21:00+12в41167100 0.0 1024168
13 апреля, вт
вт1300:00+11юв477677 0.0 1024111
03:00+10юв357998 0.0 102471
06:00+9юв478192 0.0 1024106
09:00+10юв4876100 0.0 1024211
12:00+16ююв5757100 0.0 1023881
15:00+18юв61046100 0.0 10221430
18:00+17юв5104824 0.0 1021483
21:00+13вюв41162100 0.0 1021229
14 апреля, ср
ср1400:00+12вюв3371100 0.1 102146
03:00+11вюв5147174 0.1 1020354
06:00+9юв388699 0.0 1020170
09:00+13ююв5870100 0.0 1020485
12:00+16ююв685843 0.0 10191225
15:00+17ю685399 0.3 10181568
18:00+15юз3667100 0.5 1017327
21:00+13ю2278100 0.6 101826